Tracking 30744 objects as of 23-Jun-2025
HD Live streaming from Space Station
objects crossing your sky now

STARLINK-11281

Track STARLINK-11281 now!
10-day predictions
STARLINK-11281 is classified as:


NORAD ID: 60996
Int'l Code: 2024-158G
Perigee: 366.1 km
Apogee: 367.6 km
Inclination: 53.2 °
Period: 91.7 minutes
Semi major axis: 6737 km
RCS: Unknown
Launch date: September 5, 2024
Source: United States (US)
Launch site: AIR FORCE EASTERN TEST RANGE (AFETR)
Your satellite tracking list
Your tracking list is empty




NASA's NSSDC Master Catalog

Two Line Element Set (TLE):
1 60996U 24158G   25173.16454199 -.00000532  00000-0  46804-6 0  9996
2 60996  53.1593 125.7479 0001158  87.9064 272.2086 15.69709721 46668
Source of the keplerian elements: AFSPC